| time (UTC) | temp F | wind direction | speed knots | gust knots | rain 1hr in | rain 24hr in | rain mn in | humidity % | barometer mb |
| 20260505184034 | 81 | 194 | 4.3 | 13.9 | 0.00 | 0.00 | 0.00 | 33 | 1008.4 |
| 20260505183534 | 81 | 259 | 5.2 | 13.9 | 0.00 | 0.00 | 0.00 | 34 | 1008.4 |
| 20260505183040 | 81 | 200 | 2.6 | 13.0 | 0.00 | 0.00 | 0.00 | 37 | 1008.2 |
| 20260505182535 | 81 | 142 | 3.5 | 15.6 | 0.00 | 0.00 | 0.00 | 40 | 1008.5 |
| 20260505182032 | 81 | 273 | 5.2 | 9.6 | 0.00 | 0.00 | 0.00 | 35 | 1008.5 |
| 20260505181531 | 82 | 234 | 2.6 | 13.9 | 0.00 | 0.00 | 0.00 | 37 | 1008.4 |
| 20260505181034 | 80 | 230 | 5.2 | 13.9 | 0.00 | 0.00 | 0.00 | 35 | 1008.6 |
| 20260505180534 | 81 | 209 | 5.2 | 12.2 | 0.00 | 0.00 | 0.00 | 34 | 1008.7 |
| 20260505180029 | 81 | 179 | 2.6 | 13.0 | 0.00 | 0.00 | 0.00 | 37 | 1008.7 |
| 20260505175530 | 81 | 293 | 4.3 | 8.7 | 0.00 | 0.00 | 0.00 | 35 | 1008.7 |
| 20260505175028 | 81 | 238 | 1.7 | 13.0 | 0.00 | 0.00 | 0.00 | 37 | 1008.6 |
| 20260505174528 | 81 | 252 | 3.5 | 13.0 | 0.00 | 0.00 | 0.00 | 37 | 1008.7 |
| 20260505174027 | 81 | 193 | 2.6 | 10.4 | 0.00 | 0.00 | 0.00 | 36 | 1008.8 |
| 20260505173528 | 80 | 216 | 4.3 | 12.2 | 0.00 | 0.00 | 0.00 | 40 | 1008.8 |
| 20260505173027 | 80 | 223 | 3.5 | 12.2 | 0.00 | 0.00 | 0.00 | 37 | 1008.8 |
| 20260505172526 | 81 | 198 | 2.6 | 12.2 | 0.00 | 0.00 | 0.00 | 36 | 1008.9 |
| 20260505172028 | 80 | 202 | 4.3 | 12.2 | 0.00 | 0.00 | 0.00 | 39 | 1009.0 |
| 20260505171525 | 80 | 231 | 3.5 | 13.0 | 0.00 | 0.00 | 0.00 | 42 | 1009.0 |
| 20260505171025 | 81 | 251 | 1.7 | 9.6 | 0.00 | 0.00 | 0.00 | 37 | 1009.1 |
| 20260505170524 | 80 | 226 | 3.5 | 9.6 | 0.00 | 0.00 | 0.00 | 39 | 1009.2 |
| 20260505170032 | 80 | 294 | 1.7 | 7.8 | 0.00 | 0.00 | 0.00 | 38 | 1009.3 |
| 20260505165523 | 79 | 242 | 1.7 | 7.8 | 0.00 | 0.00 | 0.00 | 44 | 1009.4 |
| 20260505165023 | 80 | 207 | 4.3 | 10.4 | 0.00 | 0.00 | 0.00 | 40 | 1009.5 |
| 20260505164525 | 80 | 178 | 1.7 | 10.4 | 0.00 | 0.00 | 0.00 | 43 | 1009.7 |
| 20260505164021 | 80 | 275 | 2.6 | 10.4 | 0.00 | 0.00 | 0.00 | 36 | 1009.8 |
| 20260505163522 | 79 | 212 | 1.7 | 8.7 | 0.00 | 0.00 | 0.00 | 45 | 1009.9 |
| 20260505163026 | 79 | 200 | 3.5 | 11.3 | 0.00 | 0.00 | 0.00 | 43 | 1010.0 |
| 20260505162525 | 79 | 212 | 3.5 | 8.7 | 0.00 | 0.00 | 0.00 | 40 | 1009.9 |
| 20260505162020 | 79 | 232 | 0.9 | 9.6 | 0.00 | 0.00 | 0.00 | 44 | 1009.9 |
| 20260505161520 | 78 | 202 | 4.3 | 9.6 | 0.00 | 0.00 | 0.00 | 44 | 1010.0 |
| 20260505161024 | 79 | 234 | 1.7 | 7.8 | 0.00 | 0.00 | 0.00 | 42 | 1010.0 |
| 20260505160519 | 79 | 193 | 2.6 | 7.8 | 0.00 | 0.00 | 0.00 | 42 | 1009.9 |
| 20260505153017 | 78 | 306 | 2.6 | 10.4 | 0.00 | 0.00 | 0.00 | 42 | 1010.0 |
| 20260505152516 | 78 | 197 | 1.7 | 7.8 | 0.00 | 0.00 | 0.00 | 43 | 1010.0 |
| 20260505152016 | 78 | 211 | 2.6 | 7.8 | 0.00 | 0.00 | 0.00 | 46 | 1010.0 |
| 20260505151522 | 78 | 226 | 1.7 | 8.7 | 0.00 | 0.00 | 0.00 | 46 | 1009.9 |
| 20260505151015 | 78 | 217 | 2.6 | 8.7 | 0.00 | 0.00 | 0.00 | 46 | 1010.0 |
| 20260505150514 | 78 | 297 | 1.7 | 7.8 | 0.00 | 0.00 | 0.00 | 43 | 1010.0 |
| 20260505140508 | 75 | 228 | 2.6 | 7.8 | 0.00 | 0.00 | 0.00 | 48 | 1010.4 |
| 20260505124554 | 68 | 207 | 2.6 | 5.2 | 0.00 | 0.00 | 0.00 | 58 | 1011.1 |
| 20260505124049 | 68 | 216 | 1.7 | 6.1 | 0.00 | 0.00 | 0.00 | 59 | 1011.1 |
| 20260505123548 | 67 | 205 | 1.7 | 6.1 | 0.00 | 0.00 | 0.00 | 59 | 1011.1 |
| 20260505123047 | 67 | 215 | 2.6 | 6.1 | 0.00 | 0.00 | 0.00 | 61 | 1011.1 |
| 20260505122546 | 66 | 202 | 2.6 | 4.3 | 0.00 | 0.00 | 0.00 | 61 | 1011.2 |
| 20260505122045 | 66 | 207 | 1.7 | 4.3 | 0.00 | 0.00 | 0.00 | 63 | 1011.2 |
| 20260505121548 | 65 | 229 | 1.7 | 3.5 | 0.00 | 0.00 | 0.00 | 64 | 1011.1 |
| 20260505121043 | 65 | 228 | 0.9 | 2.6 | 0.00 | 0.00 | 0.00 | 64 | 1011.1 |
| 20260505120540 | 64 | 229 | 0.9 | 3.5 | 0.00 | 0.00 | 0.00 | 65 | 1011.0 |
| 20260505120040 | 64 | 234 | 0.9 | 3.5 | 0.00 | 0.00 | 0.00 | 65 | 1011.0 |
| 20260505115539 | 63 | 221 | 0.9 | 3.5 | 0.00 | 0.00 | 0.00 | 65 | 1010.8 |
| 20260505115039 | 63 | 221 | 0.9 | 4.3 | 0.00 | 0.00 | 0.00 | 67 | 1010.8 |
| 20260505114538 | 62 | 234 | 0.9 | 3.5 | 0.00 | 0.00 | 0.00 | 68 | 1010.8 |
| 20260505114037 | 61 | 205 | 0.9 | 3.5 | 0.00 | 0.00 | 0.00 | 69 | 1010.7 |
| 20260505113536 | 60 | 205 | 0.9 | 3.5 | 0.00 | 0.00 | 0.00 | 71 | 1010.6 |
| 20260505113042 | 59 | 202 | 0.0 | 2.6 | 0.00 | 0.00 | 0.00 | 73 | 1010.5 |
| 20260505112536 | 59 | 202 | 0.9 | 2.6 | 0.00 | 0.00 | 0.00 | 73 | 1010.5 |
| 20260505112035 | 59 | 202 | 0.0 | 1.7 | 0.00 | 0.00 | 0.00 | 74 | 1010.4 |
| 20260505111543 | 60 | 202 | 0.0 | 0.9 | 0.00 | 0.00 | 0.00 | 72 | 1010.4 |
| 20260505111033 | 60 | 202 | 0.0 | 0.9 | 0.00 | 0.00 | 0.00 | 71 | 1010.3 |
| 20260505110532 | 60 | 202 | 0.0 | 0.9 | 0.00 | 0.00 | 0.00 | 70 | 1010.2 |
| 20260505102031 | 60 | 252 | 2.6 | 6.1 | 0.00 | 0.00 | 0.00 | 68 | 1009.8 |
| 20260505101534 | 60 | 207 | 0.9 | 5.2 | 0.00 | 0.00 | 0.00 | 68 | 1009.8 |
| 20260505101029 | 60 | 198 | 0.9 | 6.1 | 0.00 | 0.00 | 0.00 | 68 | 1009.9 |
| 20260505100529 | 60 | 209 | 0.9 | 4.3 | 0.00 | 0.00 | 0.00 | 68 | 1009.9 |
| 20260505100031 | 60 | 211 | 0.9 | 2.6 | 0.00 | 0.00 | 0.00 | 67 | 1009.8 |
| 20260505095527 | 60 | 223 | 0.9 | 4.3 | 0.00 | 0.00 | 0.00 | 67 | 1009.8 |
| 20260505095026 | 60 | 208 | 1.7 | 4.3 | 0.00 | 0.00 | 0.00 | 67 | 1009.8 |
| 20260505094527 | 60 | 287 | 0.9 | 5.2 | 0.00 | 0.00 | 0.00 | 67 | 1009.7 |
| 20260505094027 | 60 | 188 | 1.7 | 5.2 | 0.00 | 0.00 | 0.00 | 66 | 1009.7 |
| 20260505093524 | 60 | 193 | 1.7 | 5.2 | 0.00 | 0.00 | 0.00 | 66 | 1009.7 |
| 20260505093030 | 61 | 186 | 1.7 | 5.2 | 0.00 | 0.00 | 0.00 | 66 | 1009.7 |
| 20260505092524 | 61 | 175 | 0.9 | 7.0 | 0.00 | 0.00 | 0.00 | 66 | 1009.6 |
| 20260505092024 | 61 | 207 | 1.7 | 7.0 | 0.00 | 0.00 | 0.00 | 66 | 1009.6 |
| 20260505091524 | 61 | 210 | 2.6 | 5.2 | 0.00 | 0.00 | 0.00 | 66 | 1009.6 |
| 20260505091023 | 61 | 189 | 1.7 | 5.2 | 0.00 | 0.00 | 0.00 | 66 | 1009.7 |
| 20260505090524 | 61 | 170 | 1.7 | 4.3 | 0.00 | 0.00 | 0.00 | 66 | 1009.5 |
| 20260505090026 | 61 | 184 | 0.9 | 4.3 | 0.00 | 0.00 | 0.00 | 65 | 1009.5 |
| 20260505085521 | 61 | 192 | 1.7 | 5.2 | 0.00 | 0.00 | 0.00 | 65 | 1009.5 |
| 20260505085021 | 61 | 183 | 0.9 | 6.1 | 0.00 | 0.00 | 0.00 | 65 | 1009.5 |
| 20260505084527 | 61 | 206 | 0.9 | 5.2 | 0.00 | 0.00 | 0.00 | 65 | 1009.6 |
| 20260505084019 | 61 | 215 | 1.7 | 6.1 | 0.00 | 0.00 | 0.00 | 64 | 1009.5 |
| 20260505083518 | 61 | 194 | 0.9 | 1.7 | 0.00 | 0.00 | 0.00 | 64 | 1009.5 |
| 20260505083019 | 62 | 190 | 0.9 | 7.8 | 0.00 | 0.00 | 0.00 | 64 | 1009.4 |
| 20260505082518 | 62 | 192 | 1.7 | 7.8 | 0.00 | 0.00 | 0.00 | 63 | 1009.4 |
| 20260505082017 | 62 | 209 | 0.9 | 4.3 | 0.00 | 0.00 | 0.00 | 63 | 1009.4 |
| 20260505081518 | 62 | 192 | 0.0 | 2.6 | 0.00 | 0.00 | 0.00 | 63 | 1009.3 |
| 20260505081020 | 62 | 192 | 0.9 | 4.3 | 0.00 | 0.00 | 0.00 | 63 | 1009.3 |
| 20260505080519 | 62 | 191 | 0.9 | 4.3 | 0.00 | 0.00 | 0.00 | 62 | 1009.3 |
| 20260505080025 | 62 | 189 | 0.0 | 5.2 | 0.00 | 0.00 | 0.00 | 63 | 1009.3 |
| 20260505075520 | 62 | 189 | 2.6 | 5.2 | 0.00 | 0.00 | 0.00 | 62 | 1009.2 |
| 20260505075016 | 62 | 188 | 1.7 | 5.2 | 0.00 | 0.00 | 0.00 | 63 | 1009.3 |
| 20260505074516 | 62 | 189 | 0.9 | 5.2 | 0.00 | 0.00 | 0.00 | 63 | 1009.2 |
| 20260505074016 | 62 | 187 | 1.7 | 7.0 | 0.00 | 0.00 | 0.00 | 62 | 1009.3 |
| 20260505073516 | 62 | 208 | 1.7 | 7.8 | 0.00 | 0.00 | 0.00 | 63 | 1009.2 |
| 20260505073017 | 62 | 173 | 2.6 | 7.8 | 0.00 | 0.00 | 0.00 | 63 | 1009.2 |
| 20260505072516 | 62 | 211 | 2.6 | 4.3 | 0.00 | 0.00 | 0.00 | 63 | 1009.2 |
| 20260505072016 | 62 | 198 | 1.7 | 4.3 | 0.00 | 0.00 | 0.00 | 63 | 1009.2 |
| 20260505071516 | 62 | 185 | 0.9 | 4.3 | 0.00 | 0.00 | 0.00 | 63 | 1009.2 |
| 20260505071015 | 62 | 195 | 1.7 | 5.2 | 0.00 | 0.00 | 0.00 | 63 | 1009.2 |
| 20260505070514 | 62 | 196 | 0.9 | 5.2 | 0.00 | 0.00 | 0.00 | 63 | 1009.2 |
| 20260505070021 | 62 | 198 | 0.9 | 4.3 | 0.00 | 0.00 | 0.00 | 63 | 1009.2 |
| 20260505065514 | 62 | 196 | 0.9 | 4.3 | 0.00 | 0.00 | 0.00 | 63 | 1009.3 |
| 20260505065013 | 62 | 209 | 1.7 | 4.3 | 0.00 | 0.00 | 0.00 | 62 | 1009.3 |
| 20260505064513 | 63 | 178 | 1.7 | 4.3 | 0.00 | 0.00 | 0.00 | 62 | 1009.3 |
| 20260505064013 | 63 | 196 | 0.0 | 2.6 | 0.00 | 0.00 | 0.00 | 62 | 1009.4 |
| 20260505063512 | 63 | 197 | 0.9 | 2.6 | 0.00 | 0.00 | 0.00 | 61 | 1009.4 |
| 20260505063012 | 63 | 196 | 0.9 | 5.2 | 0.00 | 0.00 | 0.00 | 61 | 1009.4 |
| 20260505062512 | 63 | 194 | 0.9 | 5.2 | 0.00 | 0.00 | 0.00 | 61 | 1009.5 |
| 20260505062013 | 63 | 229 | 0.0 | 2.6 | 0.00 | 0.00 | 0.00 | 61 | 1009.5 |
| 20260505061514 | 63 | 229 | 0.0 | 2.6 | 0.00 | 0.00 | 0.00 | 61 | 1009.6 |
| 20260505061013 | 63 | 229 | 0.0 | 2.6 | 0.00 | 0.00 | 0.00 | 60 | 1009.7 |
| 20260505060511 | 63 | 231 | 0.0 | 2.6 | 0.00 | 0.00 | 0.00 | 60 | 1009.7 |
| 20260505060011 | 64 | 190 | 0.0 | 1.7 | 0.00 | 0.00 | 0.00 | 60 | 1009.7 |
| 20260505055511 | 64 | 190 | 0.0 | 4.3 | 0.00 | 0.00 | 0.00 | 60 | 1009.7 |
| 20260505055011 | 63 | 190 | 0.9 | 6.1 | 0.00 | 0.00 | 0.00 | 59 | 1009.6 |
| 20260505054510 | 63 | 248 | 0.0 | 6.1 | 0.00 | 0.00 | 0.00 | 60 | 1009.6 |
| 20260505054009 | 63 | 199 | 0.9 | 3.5 | 0.00 | 0.00 | 0.00 | 60 | 1009.7 |
| 20260505053509 | 63 | 200 | 0.0 | 2.6 | 0.00 | 0.00 | 0.00 | 60 | 1009.7 |
| 20260505053014 | 63 | 202 | 0.0 | 2.6 | 0.00 | 0.00 | 0.00 | 60 | 1009.6 |
| 20260505052510 | 63 | 201 | 0.0 | 2.6 | 0.00 | 0.00 | 0.00 | 60 | 1009.7 |
| 20260505052010 | 62 | 201 | 0.9 | 2.6 | 0.00 | 0.00 | 0.00 | 60 | 1009.7 |
| 20260505051510 | 62 | 201 | 0.0 | 1.7 | 0.00 | 0.00 | 0.00 | 61 | 1009.7 |
| 20260505051009 | 62 | 200 | 0.0 | 1.7 | 0.00 | 0.00 | 0.00 | 61 | 1009.7 |
| 20260505050511 | 62 | 200 | 0.0 | 2.6 | 0.00 | 0.00 | 0.00 | 61 | 1009.7 |
| 20260505041503 | 63 | 191 | 0.9 | 3.5 | 0.00 | 0.00 | 0.00 | 56 | 1009.5 |
| 20260505041002 | 63 | 192 | 0.9 | 3.5 | 0.00 | 0.00 | 0.00 | 56 | 1009.4 |
| 20260505040600 | 63 | 198 | 0.9 | 2.6 | 0.00 | 0.00 | 0.00 | 56 | 1009.5 |
| 20260505040104 | 63 | 200 | 0.9 | 4.3 | 0.00 | 0.00 | 0.00 | 55 | 1009.4 |
| 20260505035559 | 63 | 198 | 0.9 | 5.2 | 0.00 | 0.00 | 0.00 | 55 | 1009.5 |
| 20260505035059 | 63 | 183 | 0.9 | 5.2 | 0.00 | 0.00 | 0.00 | 55 | 1009.4 |
| 20260505034609 | 63 | 195 | 1.7 | 6.1 | 0.00 | 0.00 | 0.00 | 55 | 1009.4 |
| 20260505034101 | 63 | 200 | 1.7 | 6.1 | 0.00 | 0.00 | 0.00 | 55 | 1009.4 |
| 20260505033558 | 63 | 187 | 1.7 | 5.2 | 0.00 | 0.00 | 0.00 | 55 | 1009.3 |
| 20260505033104 | 63 | 196 | 0.9 | 5.2 | 0.00 | 0.00 | 0.00 | 55 | 1009.2 |
| 20260505032559 | 63 | 209 | 0.9 | 4.3 | 0.00 | 0.00 | 0.00 | 55 | 1009.2 |
| 20260505032058 | 63 | 200 | 0.9 | 2.6 | 0.00 | 0.00 | 0.00 | 54 | 1009.2 |
| 20260505031558 | 63 | 197 | 0.9 | 4.3 | 0.00 | 0.00 | 0.00 | 54 | 1009.2 |
| 20260505031057 | 64 | 198 | 0.9 | 4.3 | 0.00 | 0.00 | 0.00 | 54 | 1009.2 |
| 20260505030558 | 64 | 185 | 0.9 | 4.3 | 0.00 | 0.00 | 0.00 | 53 | 1009.2 |
| 20260505030057 | 64 | 179 | 1.7 | 5.2 | 0.00 | 0.00 | 0.00 | 53 | 1009.2 |
| 20260505025557 | 64 | 183 | 1.7 | 5.2 | 0.00 | 0.00 | 0.00 | 53 | 1009.2 |
| 20260505025056 | 64 | 172 | 2.6 | 6.1 | 0.00 | 0.00 | 0.00 | 53 | 1009.1 |
| 20260505024556 | 64 | 360 | 1.7 | 6.1 | 0.00 | 0.00 | 0.00 | 53 | 1009.2 |
| 20260505024056 | 64 | 196 | 2.6 | 5.2 | 0.00 | 0.00 | 0.00 | 53 | 1009.3 |
| 20260505023557 | 64 | 360 | 1.7 | 5.2 | 0.00 | 0.00 | 0.00 | 53 | 1009.5 |
| 20260505023057 | 63 | 185 | 0.9 | 7.0 | 0.00 | 0.00 | 0.00 | 54 | 1009.4 |
| 20260505022557 | 63 | 360 | 1.7 | 7.0 | 0.00 | 0.00 | 0.00 | 53 | 1009.4 |
| 20260505022100 | 63 | 360 | 0.9 | 4.3 | 0.00 | 0.00 | 0.00 | 53 | 1009.4 |
| 20260505021558 | 64 | 360 | 1.7 | 5.2 | 0.00 | 0.00 | 0.00 | 53 | 1009.5 |
| 20260505021056 | 64 | 360 | 0.9 | 7.0 | 0.00 | 0.00 | 0.00 | 53 | 1009.4 |
| 20260505020555 | 64 | 360 | 0.9 | 7.0 | 0.00 | 0.00 | 0.00 | 52 | 1009.3 |
| 20260505020055 | 64 | 360 | 1.7 | 5.2 | 0.00 | 0.00 | 0.00 | 52 | 1009.2 |
| 20260505015555 | 64 | 360 | 1.7 | 6.1 | 0.00 | 0.00 | 0.00 | 52 | 1009.3 |
| 20260505015055 | 64 | 360 | 1.7 | 5.2 | 0.00 | 0.00 | 0.00 | 51 | 1009.2 |
| 20260505014555 | 64 | 360 | 0.9 | 4.3 | 0.00 | 0.00 | 0.00 | 51 | 1009.2 |
| 20260505014054 | 65 | 360 | 1.7 | 5.2 | 0.00 | 0.00 | 0.00 | 51 | 1009.2 |
| 20260505013554 | 65 | 360 | 0.9 | 5.2 | 0.00 | 0.00 | 0.00 | 51 | 1009.1 |
| 20260505013055 | 65 | 360 | 1.7 | 7.0 | 0.00 | 0.00 | 0.00 | 50 | 1009.2 |
| 20260505012555 | 65 | 360 | 1.7 | 7.0 | 0.00 | 0.00 | 0.00 | 50 | 1009.3 |
| 20260505012056 | 65 | 360 | 3.5 | 7.8 | 0.00 | 0.00 | 0.00 | 50 | 1009.3 |
| 20260505011600 | 65 | 360 | 2.6 | 7.8 | 0.00 | 0.00 | 0.00 | 50 | 1009.2 |
| 20260505011055 | 65 | 360 | 1.7 | 4.3 | 0.00 | 0.00 | 0.00 | 50 | 1009.2 |
| 20260505010554 | 65 | 360 | 0.9 | 6.1 | 0.00 | 0.00 | 0.00 | 49 | 1009.0 |
| 20260505010103 | 66 | 360 | 2.6 | 6.1 | 0.00 | 0.00 | 0.00 | 49 | 1009.0 |
| 20260505005552 | 66 | 360 | 2.6 | 6.1 | 0.00 | 0.00 | 0.00 | 48 | 1008.9 |
| 20260505005053 | 66 | 360 | 2.6 | 7.0 | 0.00 | 0.00 | 0.00 | 48 | 1008.8 |
| 20260505004552 | 67 | 360 | 2.6 | 7.8 | 0.00 | 0.00 | 0.00 | 48 | 1008.8 |
| 20260505004055 | 67 | 360 | 2.6 | 7.8 | 0.00 | 0.00 | 0.00 | 47 | 1008.7 |
| 20260505003553 | 67 | 360 | 3.5 | 7.8 | 0.00 | 0.00 | 0.00 | 46 | 1008.7 |
| 20260505003053 | 67 | 360 | 1.7 | 7.0 | 0.00 | 0.00 | 0.00 | 46 | 1008.8 |
| 20260505002552 | 68 | 360 | 2.6 | 7.0 | 0.00 | 0.00 | 0.00 | 45 | 1008.7 |
| 20260505002052 | 68 | 360 | 1.7 | 5.2 | 0.00 | 0.00 | 0.00 | 44 | 1008.7 |
| 20260505001554 | 69 | 360 | 1.7 | 5.2 | 0.00 | 0.00 | 0.00 | 43 | 1008.7 |
| 20260505001051 | 69 | 360 | 1.7 | 5.2 | 0.00 | 0.00 | 0.00 | 42 | 1008.7 |
| 20260505000550 | 69 | 163 | 1.7 | 6.1 | 0.00 | 0.00 | 0.00 | 41 | 1008.7 |
| 20260505000059 | 70 | 190 | 2.6 | 6.1 | 0.00 | 0.00 | 0.00 | 41 | 1008.6 |
| 20260504235550 | 70 | 197 | 2.6 | 6.1 | 0.00 | 0.00 | 0.00 | 41 | 1008.6 |
| 20260504235051 | 70 | 199 | 1.7 | 6.1 | 0.00 | 0.00 | 0.00 | 41 | 1008.5 |
| 20260504234603 | 70 | 196 | 2.6 | 6.1 | 0.00 | 0.00 | 0.00 | 40 | 1008.5 |
| 20260504234053 | 70 | 214 | 2.6 | 6.1 | 0.00 | 0.00 | 0.00 | 39 | 1008.6 |
| 20260504233549 | 71 | 193 | 1.7 | 8.7 | 0.00 | 0.00 | 0.00 | 40 | 1008.6 |
| 20260504233050 | 71 | 202 | 2.6 | 8.7 | 0.00 | 0.00 | 0.00 | 40 | 1008.5 |
| 20260504232550 | 71 | 258 | 1.7 | 8.7 | 0.00 | 0.00 | 0.00 | 39 | 1008.5 |
| 20260504232049 | 71 | 202 | 3.5 | 12.2 | 0.00 | 0.00 | 0.00 | 39 | 1008.6 |
| 20260504231551 | 72 | 263 | 5.2 | 12.2 | 0.00 | 0.00 | 0.00 | 38 | 1008.6 |
| 20260504231049 | 72 | 194 | 2.6 | 8.7 | 0.00 | 0.00 | 0.00 | 38 | 1008.6 |
| 20260504230548 | 72 | 199 | 3.5 | 9.6 | 0.00 | 0.00 | 0.00 | 38 | 1008.6 |
| 20260504230048 | 72 | 199 | 3.5 | 9.6 | 0.00 | 0.00 | 0.00 | 39 | 1008.6 |
| 20260504225548 | 72 | 181 | 3.5 | 9.6 | 0.00 | 0.00 | 0.00 | 39 | 1008.6 |
| 20260504225050 | 72 | 190 | 1.7 | 6.1 | 0.00 | 0.00 | 0.00 | 39 | 1008.6 |
| 20260504224550 | 72 | 190 | 1.7 | 6.1 | 0.00 | 0.00 | 0.00 | 40 | 1008.7 |
| 20260504224046 | 72 | 209 | 1.7 | 9.6 | 0.00 | 0.00 | 0.00 | 39 | 1008.7 |
| 20260504223546 | 72 | 236 | 2.6 | 9.6 | 0.00 | 0.00 | 0.00 | 39 | 1008.7 |
| 20260504223046 | 72 | 202 | 2.6 | 13.0 | 0.00 | 0.00 | 0.00 | 39 | 1008.8 |
| 20260504222546 | 72 | 198 | 5.2 | 13.0 | 0.00 | 0.00 | 0.00 | 38 | 1008.8 |
| 20260504222049 | 72 | 216 | 1.7 | 7.8 | 0.00 | 0.00 | 0.00 | 39 | 1008.8 |
| 20260504221548 | 72 | 208 | 2.6 | 9.6 | 0.00 | 0.00 | 0.00 | 38 | 1008.8 |
| 20260504221045 | 72 | 186 | 1.7 | 9.6 | 0.00 | 0.00 | 0.00 | 38 | 1008.8 |
| 20260504220544 | 72 | 199 | 1.7 | 8.7 | 0.00 | 0.00 | 0.00 | 39 | 1008.9 |
| 20260504220050 | 72 | 227 | 2.6 | 8.7 | 0.00 | 0.00 | 0.00 | 39 | 1008.8 |
| 20260504215544 | 72 | 194 | 3.5 | 7.8 | 0.00 | 0.00 | 0.00 | 38 | 1008.8 |
| 20260504215046 | 72 | 199 | 2.6 | 6.1 | 0.00 | 0.00 | 0.00 | 38 | 1008.8 |
| 20260504214544 | 72 | 224 | 1.7 | 6.1 | 0.00 | 0.00 | 0.00 | 38 | 1008.9 |
| 20260504214043 | 72 | 209 | 1.7 | 7.0 | 0.00 | 0.00 | 0.00 | 39 | 1008.8 |
| 20260504213543 | 72 | 199 | 2.6 | 7.0 | 0.00 | 0.00 | 0.00 | 38 | 1008.8 |
| 20260504213101 | 72 | 257 | 3.5 | 7.0 | 0.00 | 0.00 | 0.00 | 39 | 1008.9 |
| 20260504212542 | 73 | 198 | 4.3 | 7.0 | 0.00 | 0.00 | 0.00 | 39 | 1009.0 |
| 20260504212045 | 72 | 200 | 2.6 | 7.0 | 0.00 | 0.00 | 0.00 | 39 | 1008.9 |
| 20260504211544 | 72 | 193 | 2.6 | 8.7 | 0.00 | 0.00 | 0.00 | 39 | 1008.8 |
| 20260504211043 | 73 | 212 | 2.6 | 8.7 | 0.00 | 0.00 | 0.00 | 39 | 1008.9 |
| 20260504210544 | 73 | 205 | 4.3 | 9.6 | 0.00 | 0.00 | 0.00 | 38 | 1008.8 |
| 20260504210042 | 73 | 228 | 2.6 | 7.0 | 0.00 | 0.00 | 0.00 | 38 | 1008.8 |
| 20260504205542 | 73 | 141 | 1.7 | 7.0 | 0.00 | 0.00 | 0.00 | 37 | 1008.8 |
| 20260504205041 | 73 | 205 | 2.6 | 7.8 | 0.00 | 0.00 | 0.00 | 39 | 1008.9 |
| 20260504204543 | 73 | 216 | 1.7 | 7.8 | 0.00 | 0.00 | 0.00 | 39 | 1008.9 |
| 20260504204040 | 73 | 210 | 3.5 | 8.7 | 0.00 | 0.00 | 0.00 | 39 | 1008.9 |
| 20260504203540 | 73 | 203 | 1.7 | 6.1 | 0.00 | 0.00 | 0.00 | 39 | 1008.9 |
| 20260504203040 | 73 | 261 | 1.7 | 7.8 | 0.00 | 0.00 | 0.00 | 40 | 1009.0 |
| 20260504202539 | 73 | 200 | 2.6 | 7.8 | 0.00 | 0.00 | 0.00 | 39 | 1009.1 |
| 20260504202037 | 73 | 208 | 3.5 | 8.7 | 0.00 | 0.00 | 0.00 | 37 | 1009.2 |
| 20260504201538 | 73 | 215 | 2.6 | 8.7 | 0.00 | 0.00 | 0.00 | 38 | 1009.3 |
| 20260504201037 | 73 | 255 | 3.5 | 7.0 | 0.00 | 0.00 | 0.00 | 38 | 1009.3 |
| 20260504200536 | 73 | 274 | 1.7 | 9.6 | 0.00 | 0.00 | 0.00 | 39 | 1009.4 |
| 20260504200036 | 73 | 232 | 4.3 | 9.6 | 0.00 | 0.00 | 0.00 | 38 | 1009.6 |
| 20260504195535 | 73 | 200 | 3.5 | 10.4 | 0.00 | 0.00 | 0.00 | 37 | 1009.6 |
| 20260504195034 | 73 | 172 | 2.6 | 10.4 | 0.00 | 0.00 | 0.00 | 40 | 1009.6 |
| 20260504194534 | 73 | 192 | 1.7 | 13.9 | 0.00 | 0.00 | 0.00 | 38 | 1009.7 |
| 20260504194034 | 73 | 203 | 3.5 | 13.9 | 0.00 | 0.00 | 0.00 | 37 | 1009.8 |
| 20260504193534 | 73 | 259 | 3.5 | 7.0 | 0.00 | 0.00 | 0.00 | 40 | 1009.8 |
| 20260504193038 | 72 | 200 | 2.6 | 6.1 | 0.00 | 0.00 | 0.00 | 40 | 1010.0 |
| 20260504192530 | 73 | 252 | 3.5 | 8.7 | 0.00 | 0.00 | 0.00 | 38 | 1010.2 |
| 20260504192030 | 72 | 259 | 2.6 | 8.7 | 0.00 | 0.00 | 0.00 | 39 | 1010.2 |
| 20260504191533 | 72 | 278 | 1.7 | 7.8 | 0.00 | 0.00 | 0.00 | 40 | 1010.3 |
| 20260504191030 | 72 | 221 | 2.6 | 13.0 | 0.00 | 0.00 | 0.00 | 38 | 1010.4 |
| 20260504190533 | 73 | 203 | 2.6 | 13.0 | 0.00 | 0.00 | 0.00 | 40 | 1010.4 |
| 20260504190032 | 72 | 187 | 3.5 | 10.4 | 0.00 | 0.00 | 0.00 | 41 | 1010.4 |
| 20260504185527 | 72 | 205 | 2.6 | 10.4 | 0.00 | 0.00 | 0.00 | 40 | 1010.5 |
| 20260504185028 | 72 | 276 | 2.6 | 10.4 | 0.00 | 0.00 | 0.00 | 43 | 1010.5 |